Precipitable_Water
0.12 0.12 0.12 0.12 0.13 0.13 0.13 0.13 0.13 0.13 0.13 0.13 0.13 0.13 0.13 0.13 0.13 0.13 0.13 0.13 0.13 0.13 0.13 0.13 0.13 0.13 0.13 0.13 0.13 0.13 0.13 0.12 0.12 0.13 0.13 0.13 0.14 0.16 0.17 0.19 0.21 0.21
0.12 0.12 0.13 0.13 0.13 0.13 0.13 0.13 0.13 0.13 0.13 0.13 0.13 0.13 0.13 0.13 0.13 0.13 0.13 0.13 0.13 0.12 0.13 0.13 0.13 0.13 0.13 0.13 0.12 0.12 0.13 0.13 0.13 0.13 0.13 0.13 0.12 0.13 0.14 0.16 0.18 0.20
0.12 0.12 0.13 0.13 0.13 0.13 0.13 0.13 0.13 0.13 0.13 0.13 0.13 0.13 0.13 0.13 0.13 0.13 0.13 0.13 0.13 0.13 0.13 0.12 0.12 0.12 0.12 0.12 0.13 0.14 0.14 0.14 0.13 0.13 0.13 0.12 0.12 0.12 0.13 0.14 0.15 0.17
0.12 0.12 0.13 0.13 0.13 0.13 0.13 0.13 0.13 0.13 0.13 0.13 0.13 0.14 0.14 0.14 0.14 0.14 0.14 0.14 0.13 0.13 0.13 0.13 0.13 0.13 0.13 0.13 0.13 0.12 0.12 0.12 0.12 0.13 0.12 0.12 0.12 0.11 0.11 0.13 0.15 0.15
0.12 0.13 0.13 0.13 0.13 0.13 0.14 0.13 0.13 0.14 0.14 0.14 0.14 0.14 0.14 0.14 0.14 0.14 0.14 0.14 0.14 0.13 0.13 0.13 0.13 0.12 0.12 0.12 0.12 0.12 0.12 0.12 0.12 0.12 0.11 0.11 0.11 0.12 0.11 0.11 0.13 0.13
0.12 0.12 0.13 0.13 0.13 0.14 0.14 0.14 0.14 0.14 0.14 0.14 0.15 0.15 0.15 0.15 0.15 0.15 0.15 0.15 0.14 0.14 0.14 0.13 0.13 0.13 0.13 0.12 0.12 0.12 0.12 0.11 0.11 0.11 0.11 0.10 0.10 0.11 0.11 0.11 0.12 0.12
0.12 0.12 0.13 0.13 0.13 0.14 0.14 0.14 0.14 0.15 0.15 0.15 0.16 0.16 0.16 0.16 0.16 0.16 0.16 0.16 0.15 0.15 0.14 0.13 0.13 0.13 0.13 0.13 0.13 0.13 0.12 0.11 0.11 0.10 0.10 0.10 0.10 0.10 0.11 0.11 0.11 0.11
0.12 0.12 0.13 0.13 0.13 0.13 0.14 0.14 0.15 0.15 0.15 0.16 0.16 0.16 0.17 0.17 0.17 0.17 0.17 0.17 0.16 0.16 0.15 0.14 0.14 0.14 0.14 0.14 0.13 0.12 0.12 0.11 0.11 0.10 0.10 0.10 0.10 0.09 0.10 0.11 0.11 0.11
0.12 0.12 0.13 0.13 0.13 0.14 0.14 0.14 0.15 0.15 0.16 0.16 0.17 0.17 0.17 0.17 0.17 0.17 0.17 0.17 0.17 0.17 0.16 0.15 0.15 0.15 0.14 0.14 0.14 0.13 0.12 0.11 0.11 0.11 0.10 0.10 0.10 0.10 0.09 0.09 0.10 0.10
0.12 0.13 0.13 0.13 0.13 0.14 0.14 0.14 0.15 0.16 0.16 0.17 0.17 0.18 0.18 0.18 0.18 0.18 0.18 0.18 0.17 0.17 0.17 0.17 0.16 0.16 0.15 0.15 0.14 0.13 0.12 0.12 0.12 0.11 0.11 0.11 0.11 0.11 0.11 0.10 0.09 0.09
0.12 0.13 0.13 0.13 0.13 0.14 0.14 0.15 0.15 0.16 0.17 0.17 0.17 0.17 0.18 0.18 0.18 0.18 0.18 0.18 0.18 0.18 0.18 0.17 0.17 0.17 0.16 0.16 0.15 0.14 0.13 0.13 0.12 0.12 0.12 0.11 0.12 0.12 0.12 0.12 0.12 0.11
0.12 0.13 0.13 0.13 0.14 0.14 0.15 0.15 0.16 0.16 0.17 0.17 0.17 0.17 0.18 0.18 0.18 0.19 0.19 0.18 0.18 0.18 0.18 0.18 0.18 0.18 0.18 0.17 0.17 0.16 0.15 0.14 0.13 0.13 0.13 0.12 0.12 0.11 0.11 0.12 0.12 0.13
0.12 0.13 0.13 0.14 0.14 0.15 0.15 0.16 0.16 0.17 0.17 0.17 0.18 0.18 0.18 0.18 0.18 0.18 0.19 0.19 0.19 0.19 0.19 0.19 0.19 0.19 0.19 0.18 0.18 0.17 0.16 0.15 0.15 0.14 0.14 0.13 0.13 0.13 0.13 0.12 0.12 0.12
0.12 0.13 0.13 0.14 0.14 0.15 0.16 0.16 0.16 0.17 0.17 0.18 0.18 0.18 0.18 0.18 0.18 0.18 0.19 0.19 0.19 0.19 0.19 0.20 0.20 0.19 0.19 0.19 0.19 0.18 0.18 0.17 0.16 0.15 0.15 0.14 0.14 0.14 0.14 0.14 0.13 0.13
0.12 0.12 0.13 0.14 0.14 0.15 0.15 0.16 0.16 0.17 0.17 0.18 0.18 0.18 0.18 0.18 0.18 0.18 0.18 0.19 0.19 0.19 0.20 0.20 0.20 0.20 0.20 0.20 0.20 0.19 0.19 0.18 0.18 0.17 0.16 0.16 0.15 0.15 0.15 0.15 0.15 0.15
0.12 0.12 0.13 0.13 0.14 0.14 0.15 0.15 0.16 0.17 0.17 0.18 0.18 0.18 0.19 0.19 0.19 0.19 0.19 0.19 0.19 0.19 0.20 0.20 0.20 0.20 0.21 0.21 0.21 0.21 0.20 0.19 0.19 0.18 0.18 0.17 0.17 0.16 0.17 0.17 0.16 0.16
0.12 0.12 0.13 0.13 0.13 0.14 0.14 0.15 0.15 0.16 0.16 0.17 0.18 0.18 0.18 0.19 0.19 0.19 0.19 0.19 0.19 0.19 0.19 0.20 0.20 0.21 0.21 0.21 0.22 0.22 0.21 0.21 0.20 0.19 0.19 0.18 0.18 0.18 0.17 0.18 0.18 0.18
0.12 0.12 0.12 0.13 0.13 0.14 0.14 0.14 0.15 0.15 0.15 0.16 0.16 0.17 0.18 0.19 0.19 0.19 0.19 0.20 0.20 0.20 0.20 0.20 0.20 0.21 0.21 0.22 0.22 0.22 0.23 0.22 0.22 0.21 0.20 0.20 0.20 0.19 0.19 0.19 0.19 0.19
0.12 0.12 0.12 0.13 0.13 0.13 0.14 0.14 0.15 0.15 0.15 0.15 0.15 0.16 0.17 0.18 0.19 0.19 0.19 0.20 0.20 0.20 0.20 0.21 0.21 0.21 0.22 0.22 0.22 0.23 0.23 0.23 0.23 0.23 0.22 0.21 0.21 0.21 0.21 0.21 0.20 0.20
0.12 0.12 0.12 0.12 0.13 0.13 0.13 0.14 0.14 0.14 0.15 0.15 0.16 0.16 0.16 0.17 0.18 0.19 0.20 0.20 0.20 0.20 0.20 0.21 0.21 0.22 0.22 0.23 0.23 0.23 0.23 0.24 0.23 0.24 0.23 0.23 0.23 0.23 0.22 0.22 0.22 0.21
0.12 0.12 0.12 0.13 0.13 0.13 0.13 0.13 0.14 0.14 0.15 0.15 0.16 0.16 0.16 0.17 0.17 0.18 0.19 0.20 0.20 0.21 0.20 0.20 0.21 0.22 0.23 0.23 0.23 0.24 0.24 0.24 0.24 0.24 0.24 0.24 0.24 0.24 0.24 0.24 0.24 0.23
0.13 0.13 0.13 0.13 0.13 0.13 0.13 0.13 0.14 0.14 0.14 0.15 0.16 0.16 0.17 0.17 0.18 0.18 0.18 0.19 0.20 0.21 0.21 0.21 0.22 0.23 0.23 0.24 0.24 0.24 0.24 0.24 0.24 0.24 0.23 0.24 0.24 0.24 0.24 0.25 0.25 0.25
0.13 0.13 0.13 0.13 0.13 0.13 0.13 0.13 0.13 0.14 0.14 0.15 0.15 0.16 0.16 0.17 0.17 0.18 0.18 0.19 0.20 0.21 0.21 0.22 0.22 0.23 0.24 0.25 0.25 0.25 0.25 0.25 0.24 0.24 0.23 0.23 0.24 0.24 0.24 0.25 0.26 0.26
0.14 0.13 0.13 0.13 0.14 0.14 0.14 0.14 0.14 0.14 0.14 0.15 0.15 0.16 0.16 0.17 0.17 0.18 0.18 0.19 0.20 0.21 0.21 0.22 0.23 0.24 0.25 0.25 0.26 0.25 0.25 0.25 0.25 0.24 0.23 0.23 0.23 0.24 0.25 0.25 0.26 0.26
0.14 0.14 0.14 0.14 0.14 0.14 0.14 0.14 0.15 0.15 0.15 0.16 0.16 0.16 0.17 0.17 0.17 0.18 0.18 0.19 0.20 0.21 0.22 0.22 0.23 0.24 0.25 0.26 0.26 0.26 0.26 0.26 0.25 0.24 0.23 0.23 0.23 0.24 0.24 0.24 0.25 0.27
0.14 0.14 0.15 0.14 0.14 0.14 0.15 0.15 0.15 0.15 0.16 0.16 0.16 0.17 0.17 0.17 0.18 0.18 0.18 0.19 0.20 0.21 0.22 0.22 0.23 0.24 0.25 0.26 0.26 0.26 0.26 0.25 0.25 0.24 0.23 0.23 0.23 0.23 0.23 0.24 0.25 0.26
Wind_Speed
21 21 21 22 22 23 23 24 25 25 26 27 28 28 29 30 31 33 34 35 36 37 38 39 39 39 40 41 43 44 46 48 51 54 57 60 63 64 64 64 65 66
21 20 21 21 22 22 23 23 24 24 25 26 27 28 29 30 30 31 32 32 34 35 36 37 37 38 38 38 39 40 42 44 46 49 51 55 59 63 65 65 65 65
20 20 20 21 21 22 22 23 23 23 24 25 26 27 28 29 29 30 30 31 31 32 33 34 35 35 36 36 36 37 38 40 42 44 47 50 53 58 62 64 65 65
19 19 20 20 20 21 21 22 22 23 23 24 25 26 27 27 28 28 28 29 29 30 30 31 32 33 33 33 33 34 35 37 38 40 43 46 48 52 56 59 61 64
20 20 19 19 20 20 20 21 21 22 23 24 24 25 26 26 26 26 26 26 27 27 27 28 28 30 30 30 31 31 32 33 34 36 39 42 44 48 51 54 56 59
21 20 20 20 20 20 20 20 21 22 22 23 24 24 25 25 24 24 23 23 23 24 24 24 25 26 27 27 28 29 29 30 31 33 35 37 40 43 46 49 52 54
22 21 21 20 20 20 20 20 21 21 22 23 23 24 24 23 23 22 21 21 20 20 20 20 21 22 23 24 25 26 27 27 28 29 31 32 34 37 41 44 47 50
22 22 21 21 20 20 20 20 21 21 22 22 23 23 23 22 22 21 20 19 18 17 17 17 18 19 20 21 22 23 24 24 25 26 27 28 30 32 35 38 41 44
22 22 21 21 21 20 20 20 20 21 22 22 22 23 23 22 21 20 19 18 17 16 15 15 16 16 18 19 20 21 22 22 23 23 23 24 26 27 30 33 35 38
23 22 22 21 21 20 20 20 20 21 22 22 22 22 22 22 21 20 19 18 16 16 15 14 14 15 16 17 19 20 21 21 21 21 21 22 22 23 24 26 29 32
22 22 22 22 21 21 20 20 21 21 22 22 22 22 22 21 21 20 19 18 16 15 15 14 14 14 15 16 17 18 19 20 20 20 20 20 20 21 21 22 24 26
22 22 22 22 22 21 21 21 21 21 21 22 22 22 21 21 21 20 19 18 17 16 15 14 14 14 14 15 16 17 18 19 20 20 20 20 20 20 20 21 22 23
22 22 22 22 22 22 22 22 22 21 21 21 22 22 22 21 21 20 19 19 18 17 15 14 14 14 14 15 16 17 18 19 19 19 19 19 20 20 20 21 22 23
22 22 22 22 22 22 22 22 22 22 21 21 22 22 22 21 21 20 19 19 18 17 16 15 14 14 14 14 15 15 17 18 19 19 19 19 20 20 20 21 21 22
22 22 23 23 23 23 22 22 22 22 22 22 22 22 22 21 21 20 20 19 19 18 17 16 15 15 14 14 14 14 15 16 17 17 18 18 19 19 20 21 21 22
23 23 23 23 23 23 23 22 22 22 22 22 22 23 22 22 21 20 20 19 19 19 18 17 16 15 15 15 15 14 14 15 15 16 16 16 17 18 18 19 20 21
24 23 24 24 23 23 23 22 22 22 22 22 23 23 23 23 22 21 20 20 20 20 18 17 17 17 17 16 15 15 15 15 15 16 16 16 16 17 17 18 18 19
24 24 24 24 24 24 23 23 22 22 22 22 23 23 24 23 22 21 20 20 20 20 19 18 17 18 18 17 16 16 16 16 16 16 17 17 17 17 18 18 18 19
25 25 25 24 24 24 24 23 23 22 22 23 23 23 23 23 22 22 21 20 20 20 20 18 18 18 18 18 17 17 17 17 17 17 18 18 18 18 18 19 19 19
26 25 25 25 24 24 24 23 23 22 22 22 23 23 23 23 22 22 21 21 21 20 19 18 18 17 17 18 18 18 18 18 18 18 18 19 19 19 19 20 20 20
26 26 26 25 25 24 24 23 23 22 22 22 22 22 22 22 22 22 21 21 21 20 19 19 18 18 17 17 17 18 18 18 18 18 19 19 20 20 20 20 20 20
27 27 26 26 25 25 24 24 23 23 22 22 22 22 22 22 22 21 21 21 21 20 19 19 19 18 18 17 17 17 18 17 17 18 19 19 19 20 20 20 20 20
28 27 27 26 25 25 25 24 23 23 22 22 22 21 22 22 22 21 21 21 20 20 20 20 20 20 19 18 17 17 17 17 17 17 18 19 19 19 19 20 20 19
28 28 27 27 26 25 25 24 23 23 22 22 22 21 22 22 21 21 21 20 20 21 21 21 20 20 20 18 17 17 16 16 16 17 17 18 18 19 19 19 19 19
28 28 27 27 26 25 25 24 24 23 22 22 22 21 22 22 21 21 21 20 20 21 21 21 20 20 19 19 18 17 16 15 15 16 16 17 17 18 18 18 18 19
29 28 28 27 26 26 25 24 24 23 23 22 22 22 22 21 21 20 20 20 20 20 20 20 19 19 19 19 18 17 15 14 14 14 15 15 15 16 16 17 17 17
Wind_Direction
311 308 307 305 304 303 303 302 301 301 300 298 297 295 292 290 287 284 280 277 274 270 268 265 264 262 261 259 258 257 254 253 252 251 249 248 247 246 246 246 244 244
315 312 310 308 307 307 306 306 305 304 303 302 301 300 298 295 291 288 284 280 276 273 269 266 264 262 261 260 259 257 255 254 253 252 250 249 247 247 246 246 245 244
321 318 315 312 311 310 309 309 308 308 307 307 306 305 303 300 296 292 288 284 280 275 271 268 265 263 261 259 258 257 256 255 254 253 251 250 248 247 246 246 245 245
328 324 321 318 316 314 313 312 312 312 312 311 311 310 308 305 301 297 292 287 283 278 273 269 265 263 261 259 258 257 257 256 256 255 254 252 249 247 247 246 246 245
335 331 327 324 322 320 318 317 317 317 316 316 316 315 313 311 308 303 298 292 286 281 276 270 266 263 261 259 258 258 257 257 258 258 256 254 251 249 247 247 246 246
339 336 332 330 328 326 324 323 322 321 321 320 320 320 319 317 314 311 305 299 292 285 279 273 267 264 261 260 259 258 258 259 259 260 259 257 254 251 249 247 247 246
341 338 336 333 331 329 328 327 326 325 324 324 324 324 323 323 321 319 314 308 300 292 285 277 270 266 262 260 259 259 259 260 261 261 261 259 257 254 251 248 247 246
342 340 338 335 333 331 330 329 329 329 329 328 328 328 327 327 326 325 322 317 310 301 292 284 275 269 264 261 260 260 260 261 263 263 262 260 258 255 252 250 248 247
344 343 341 338 335 333 331 330 330 331 332 332 332 332 331 330 330 329 328 324 319 310 301 291 282 274 268 264 261 260 260 261 263 263 263 262 260 257 254 251 249 247
346 345 344 341 339 335 333 332 332 333 333 334 335 335 334 333 332 332 330 328 323 317 309 298 288 279 272 268 264 262 261 261 262 262 262 262 261 259 256 252 249 247
345 345 344 343 341 338 336 335 334 334 335 335 335 335 336 335 334 333 332 329 325 320 314 305 295 285 278 272 268 265 263 262 262 262 262 261 260 259 256 254 250 247
343 343 343 342 341 340 339 337 335 335 335 335 336 335 335 335 335 334 333 330 326 322 317 309 301 291 284 277 272 268 265 264 263 262 261 261 260 258 256 254 251 248
340 341 341 341 341 341 340 339 337 335 334 334 335 335 335 334 333 333 332 330 326 322 318 312 305 297 290 284 278 273 269 266 264 263 262 260 259 258 257 255 251 248
338 338 339 339 340 340 339 339 338 337 336 334 333 333 333 332 332 331 330 330 327 323 319 313 307 300 294 289 284 279 274 269 266 264 263 261 259 258 256 254 253 250
335 335 336 337 337 338 338 338 338 338 337 336 334 333 331 330 330 329 329 328 327 324 320 314 308 302 297 293 288 283 278 273 270 267 264 263 261 259 256 253 252 250
332 332 333 333 334 335 335 335 336 336 336 336 335 334 333 331 329 327 327 328 327 325 320 314 309 305 300 295 290 285 280 275 272 269 267 265 262 260 257 254 252 250
331 330 330 330 330 330 331 332 333 334 334 335 335 334 335 334 332 329 327 326 325 324 320 315 310 305 300 295 291 286 280 275 272 270 267 266 264 261 259 257 254 252
329 329 328 327 327 327 327 329 330 331 332 333 333 334 335 335 334 331 329 327 325 323 320 315 310 305 299 295 292 287 281 275 272 270 268 266 265 264 263 261 258 257
329 327 326 325 325 324 324 325 326 328 329 331 331 333 334 334 334 333 331 329 327 325 322 318 313 308 302 297 293 288 283 277 273 269 269 268 266 265 265 264 262 260
329 327 325 324 323 322 322 322 323 324 326 328 330 331 332 333 333 333 332 330 329 328 326 322 318 313 306 299 295 290 285 281 276 271 269 268 267 266 266 265 264 262
328 326 324 323 321 320 319 320 321 322 323 325 327 329 330 331 331 332 332 332 331 331 329 327 324 318 310 303 298 293 288 284 279 275 272 269 269 268 267 267 265 263
327 326 324 322 320 318 318 318 318 319 320 322 324 326 328 329 330 330 331 332 333 334 332 330 327 324 318 310 303 297 292 288 283 278 274 271 269 268 267 268 267 265
327 325 323 321 319 317 316 315 316 316 317 319 321 322 324 326 328 329 330 332 333 334 334 333 332 329 325 319 312 303 296 291 287 282 277 274 271 269 267 268 268 266
328 326 324 321 319 316 314 313 312 313 314 316 317 318 319 322 325 327 328 330 331 332 333 334 333 330 327 325 319 311 303 296 291 286 281 276 273 269 267 267 267 265
329 327 324 322 319 316 313 311 310 309 311 312 313 314 315 318 322 324 325 327 330 331 331 332 332 331 330 329 325 318 312 305 297 291 285 280 275 270 266 265 265 264
330 328 325 323 320 317 314 310 308 307 307 308 310 311 312 314 318 320 321 324 328 330 329 329 330 333 333 333 332 329 325 318 309 302 294 286 278 272 268 265 264 264